Theta_e
313 312 313 313 313 316 319 320 322 323 326 326 321 321 319 320 322 320 322 321 320 321 319 319 319 319 319 318 319 318 319 322 322 324 323 322 322 319 320 317 319 319 319 318 319 323 326 328 329 331 331 332 332 331 332 332 332 332 332 332 331 330 330 331 329 326 323 324 322 321 320 319 319 320 320 319 319 318 318 317 318 318 319 323 329 332 332 334 335 333 331 327 325 326 326 326 325
313 313 313 313 315 321 321 321 328 331 329 321 317 320 318 320 320 322 326 323 321 320 319 319 320 320 319 319 319 319 319 320 319 320 320 322 321 321 321 318 318 319 320 318 318 321 323 327 327 329 329 330 331 331 332 332 332 331 332 332 331 329 330 331 330 327 323 323 322 321 320 320 320 320 320 318 319 318 318 317 317 316 317 323 328 333 333 334 335 334 331 327 325 325 326 327 326
312 313 313 314 319 321 323 323 328 333 328 318 319 325 321 317 323 325 324 322 320 319 320 319 320 321 319 320 319 319 320 319 319 320 320 321 321 321 320 318 318 318 320 319 318 318 321 325 326 327 327 328 329 330 331 331 331 330 331 331 331 329 328 329 329 328 324 322 321 320 320 320 320 320 319 319 319 319 319 318 317 316 318 327 331 334 335 333 335 335 331 327 324 324 325 327 327
313 314 316 318 320 321 332 333 335 336 325 320 320 324 325 320 327 326 319 318 319 319 320 319 320 320 320 321 319 319 319 319 320 320 320 320 319 319 317 317 317 317 319 320 319 318 319 321 325 326 326 327 327 328 328 329 329 329 330 330 331 329 327 328 328 328 325 322 321 320 320 320 320 320 320 321 321 319 320 319 317 316 319 329 333 335 336 334 335 336 331 327 323 321 323 326 327
315 315 318 319 321 321 330 330 331 333 323 325 320 319 332 330 329 323 317 318 319 319 319 319 320 320 320 320 320 319 319 319 320 319 320 319 317 317 316 317 317 316 317 319 320 319 318 319 322 325 325 326 326 326 327 327 327 328 328 328 329 328 327 327 327 328 327 323 320 320 320 320 320 320 321 322 321 320 320 319 318 317 320 329 334 335 336 335 335 335 331 327 322 319 320 322 324
319 318 319 319 320 317 326 324 321 327 327 329 320 322 337 328 321 318 317 319 319 320 319 319 319 319 319 319 320 319 319 319 319 319 318 318 317 316 316 316 316 316 316 318 320 320 319 319 319 322 325 325 325 325 325 326 326 326 326 326 327 327 327 326 326 327 327 324 321 320 319 320 320 320 323 324 322 321 321 319 319 318 321 328 332 334 335 335 334 333 331 328 322 318 317 318 319
321 320 319 321 320 318 331 327 322 327 323 321 319 324 327 317 314 315 317 319 319 320 319 319 319 319 319 318 319 320 319 320 319 319 318 317 317 316 316 315 316 316 316 317 318 320 320 319 319 320 322 324 325 325 325 325 325 325 324 325 325 326 326 326 326 326 327 325 321 320 320 320 320 321 324 326 323 321 322 321 320 319 323 327 330 332 334 334 332 331 329 326 319 315 314 314 315
320 320 318 326 330 328 334 327 327 330 319 315 317 318 317 315 314 316 318 317 318 319 319 320 319 319 319 317 318 319 319 319 319 319 319 317 317 316 316 315 315 316 316 315 317 320 320 320 319 319 320 323 325 324 324 324 324 324 323 324 324 325 326 326 326 325 326 325 322 320 320 321 323 324 325 327 325 322 321 322 321 321 325 328 329 331 331 331 330 328 325 320 313 311 311 311 311
318 319 317 325 333 334 334 324 323 324 322 320 316 316 315 316 316 316 319 317 317 317 318 319 319 320 319 318 318 319 319 319 319 319 318 317 317 316 316 315 315 315 316 315 316 318 320 320 320 319 319 320 323 324 324 324 324 324 323 323 323 324 325 326 326 325 325 324 322 321 321 323 326 328 328 328 328 326 324 322 322 323 326 327 328 328 327 326 324 322 318 314 311 310 309 309 310
319 320 317 325 334 332 328 323 323 321 323 320 314 317 316 316 316 317 318 316 317 316 318 319 319 319 318 319 319 319 319 318 319 319 318 317 318 316 316 316 315 315 315 315 315 316 319 320 320 320 319 319 321 322 323 324 324 324 323 323 323 323 323 325 325 325 325 323 322 321 322 326 329 329 330 329 329 330 327 323 320 322 324 324 324 323 322 321 320 318 314 312 311 309 308 308 308
320 319 319 332 335 325 321 323 329 329 327 319 315 318 316 317 317 316 317 316 316 315 317 318 318 319 318 318 319 319 318 317 319 320 318 318 317 316 316 316 316 316 315 315 315 316 317 319 320 320 320 319 319 320 321 322 323 323 323 323 323 322 322 324 324 324 325 324 323 323 323 327 329 328 329 331 331 330 329 326 322 320 321 321 320 318 318 317 318 317 313 311 309 306 306 306 306
320 321 331 342 330 320 322 325 330 333 333 325 318 317 316 316 317 316 316 315 315 315 316 317 318 318 317 317 318 317 317 317 318 319 319 319 318 317 316 316 316 316 315 315 315 315 316 317 319 320 320 320 319 319 319 320 322 322 323 322 322 321 322 323 323 323 324 325 325 325 325 327 328 326 327 330 332 331 330 329 327 324 323 322 318 315 314 313 313 313 310 310 308 304 305 305 305
320 322 333 331 321 322 322 323 328 331 331 322 317 317 316 315 316 316 315 315 314 315 317 317 318 317 317 317 317 317 317 316 316 317 318 318 318 318 317 316 316 316 316 315 315 315 315 316 317 318 320 320 320 320 319 319 320 321 321 321 321 320 321 322 322 322 322 324 326 326 327 327 327 326 326 327 331 332 330 329 328 327 325 322 318 314 312 310 310 309 309 309 307 305 305 304 304
320 320 325 320 319 325 319 320 326 326 322 318 316 316 317 316 316 316 315 317 315 315 317 317 317 317 316 315 316 316 316 315 315 316 316 316 317 318 317 317 316 316 317 316 315 315 315 315 315 316 318 320 320 320 320 319 319 319 319 320 319 319 319 320 321 321 321 323 325 326 327 327 326 326 326 327 329 331 331 330 328 327 327 323 318 314 311 309 308 308 308 308 306 305 304 304 304
318 318 327 324 322 324 318 319 323 322 319 318 317 315 316 316 316 316 316 317 317 316 317 317 317 316 316 315 316 315 315 315 315 316 315 316 317 318 318 317 317 316 316 316 315 315 315 314 315 315 316 318 319 320 320 320 320 319 319 319 319 319 319 319 319 320 321 322 325 327 326 326 326 326 325 326 327 330 331 331 329 327 327 325 319 314 311 309 308 306 306 306 305 305 305 304 304
317 317 325 325 320 320 316 318 321 322 321 317 316 316 317 316 316 316 316 316 317 316 316 317 316 316 316 316 316 315 316 315 315 315 315 316 316 317 318 317 316 316 316 316 316 316 315 315 315 315 315 317 318 319 320 320 321 320 320 320 320 320 319 319 318 319 320 322 325 327 327 326 326 325 325 324 324 327 331 331 330 328 328 327 321 315 312 310 307 305 305 305 305 304 304 304 305
315 319 328 323 318 319 319 321 321 321 323 318 316 316 315 316 316 316 316 317 316 317 316 316 316 316 316 315 316 315 315 315 315 315 315 315 316 316 317 317 316 316 317 317 317 316 316 316 315 315 315 315 317 318 319 321 321 321 322 321 322 322 321 320 319 319 319 320 323 326 327 326 326 325 325 324 322 325 330 331 330 329 329 328 322 316 313 310 308 305 305 305 304 304 304 305 305
318 328 327 320 323 323 324 327 320 317 320 317 315 316 314 315 316 315 316 316 316 316 316 316 316 315 315 315 315 315 315 315 315 315 315 315 315 316 316 316 316 316 316 316 317 317 317 316 316 315 314 315 316 317 318 319 321 322 322 322 323 323 323 322 321 320 319 319 321 323 325 325 325 325 325 324 324 324 328 330 330 330 329 328 323 317 314 311 308 305 304 305 304 304 304 305 306
321 328 320 324 333 324 319 321 317 315 317 315 315 315 314 315 315 314 316 316 315 316 316 316 315 315 315 315 315 315 315 315 315 315 315 315 315 315 315 316 316 316 316 317 316 317 317 317 316 316 315 315 315 316 317 318 320 321 323 323 323 323 323 323 324 322 320 320 320 321 322 322 323 324 324 324 325 324 326 328 329 329 329 328 322 317 315 311 309 306 304 305 304 304 304 305 306
318 320 322 332 328 317 315 316 316 316 316 314 314 314 313 315 315 314 315 315 315 315 316 315 315 316 315 315 315 315 315 315 315 315 315 315 315 315 315 315 315 316 316 316 317 317 317 317 317 316 316 315 315 315 316 317 319 320 322 324 324 323 322 322 323 323 321 321 320 320 320 321 322 323 323 324 326 325 324 327 328 328 328 325 319 315 315 312 309 307 305 304 304 304 304 305 305
316 318 327 328 316 315 319 316 317 316 315 314 314 314 314 315 315 315 315 315 316 316 316 315 315 315 315 315 315 315 315 314 314 314 314 314 314 315 315 315 315 315 316 316 316 316 317 317 317 317 316 316 316 316 315 316 317 319 320 322 324 324 324 323 322 322 322 321 321 320 319 320 320 321 321 323 326 326 325 326 327 326 324 320 315 313 313 312 310 307 305 304 304 304 304 305 305
317 319 321 319 313 317 318 316 318 316 315 315 313 315 315 315 315 315 315 316 317 316 316 316 315 315 315 315 315 314 314 314 315 314 314 314 315 315 315 315 315 315 315 315 316 316 317 317 317 317 317 316 316 316 316 316 316 317 318 319 322 324 325 325 324 323 322 321 322 321 320 320 319 319 319 322 325 326 326 326 325 323 321 318 314 313 313 311 309 308 305 304 304 303 304 305 305
319 320 316 316 316 316 317 317 317 317 316 314 313 315 314 313 314 315 314 315 316 316 317 316 315 315 314 315 314 314 314 314 314 314 315 315 315 315 315 315 315 315 315 315 315 315 316 317 318 317 317 317 317 317 317 317 317 317 317 318 319 321 323 325 326 324 322 322 322 322 322 320 319 319 318 319 321 323 325 325 325 323 320 318 315 313 313 311 309 307 306 304 303 303 303 304 305
319 321 316 316 316 314 316 316 315 316 315 314 314 313 312 313 314 314 314 315 316 316 316 315 315 314 314 315 314 314 315 314 313 314 314 314 314 314 315 314 314 315 315 315 314 315 316 317 317 317 317 316 317 317 317 318 318 317 317 318 318 319 320 323 324 325 325 324 323 323 323 322 321 320 319 319 317 319 321 324 326 324 320 319 316 315 315 313 310 308 307 305 303 303 303 304 305
318 321 316 314 314 314 315 314 314 315 314 314 313 312 312 313 313 312 314 316 317 316 315 315 314 314 315 315 315 314 314 314 314 313 313 314 314 314 314 314 314 315 314 314 314 315 316 316 316 316 316 316 316 317 318 318 318 318 318 318 318 319 320 321 322 323 325 325 325 324 324 324 323 321 321 320 319 319 322 325 326 326 324 324 320 317 315 314 313 310 308 305 304 303 304 303 304
315 316 314 313 313 313 314 314 314 314 313 313 312 312 313 313 312 313 315 317 316 316 315 315 315 314 315 315 315 314 313 314 314 314 314 313 314 314 314 314 314 314 314 314 314 314 315 316 315 315 316 316 317 317 317 318 318 318 319 319 319 320 320 321 322 324 324 324 325 325 325 326 324 323 322 322 321 322 324 326 327 328 328 327 323 319 317 316 315 313 310 307 304 303 303 303 303
313 312 312 312 313 313 313 313 314 313 312 313 313 313 313 311 312 315 317 317 316 315 314 314 314 314 314 314 314 314 313 314 314 314 314 313 314 314 314 314 314 314 314 314 315 315 315 315 315 315 316 316 316 316 317 317 318 318 319 320 321 321 321 322 324 325 325 324 324 325 326 327 326 324 324 324 323 324 325 326 327 327 327 326 323 322 320 318 316 315 313 310 306 303 302 302 303
312 312 313 312 312 313 313 313 313 313 313 313 313 313 312 311 313 317 317 317 316 314 313 313 313 313 313 313 313 313 313 313 314 313 313 313 313 314 314 314 313 314 314 314 315 315 315 315 316 316 316 316 315 316 317 319 320 320 320 321 321 322 322 323 324 325 326 326 326 325 325 326 326 325 325 325 324 324 325 325 326 326 326 325 324 323 322 321 320 317 315 314 310 304 302 302 302
313 312 314 315 314 315 314 312 312 312 314 313 312 315 317 315 315 318 316 316 316 313 312 312 312 312 312 312 312 312 313 313 313 313 312 312 312 313 313 313 313 314 314 314 314 314 315 315 316 316 316 315 314 314 317 320 321 322 322 322 322 323 323 324 325 326 327 327 327 327 326 326 326 326 326 326 326 326 326 326 326 326 326 326 325 324 323 324 323 318 316 316 314 308 303 302 302
313 311 312 316 317 320 315 310 311 312 314 313 312 317 325 324 318 316 316 314 316 314 311 311 311 311 311 311 312 312 312 312 312 312 311 311 311 312 312 312 313 313 313 313 313 314 314 314 314 315 314 314 314 314 317 320 323 324 324 324 324 324 324 325 325 326 327 327 327 327 327 327 327 326 326 326 326 326 327 327 327 326 326 325 325 324 324 325 324 321 318 318 316 313 307 302 301
315 311 315 318 316 325 320 310 312 314 313 312 312 317 324 325 318 315 316 314 316 314 310 310 311 311 311 310 310 310 310 310 311 311 311 311 311 311 311 311 311 311 312 312 313 313 313 313 313 313 314 314 314 315 317 321 324 325 325 325 325 325 325 325 326 326 327 327 327 327 327 327 327 327 326 326 326 326 327 327 327 326 326 325 325 325 325 325 324 322 320 319 318 316 311 304 301
321 313 322 325 316 324 324 310 310 315 313 310 312 318 320 319 316 316 315 313 315 313 310 310 310 310 309 309 309 309 309 309 310 310 310 310 310 310 310 310 311 311 311 312 312 312 313 313 314 314 314 315 315 316 317 320 323 325 326 326 325 325 325 325 325 325 326 326 327 327 327 326 326 326 326 326 326 326 326 326 326 326 325 325 325 325 324 324 324 323 322 321 320 318 315 308 302
326 317 322 328 319 319 321 313 310 311 313 311 312 317 319 317 314 315 316 313 314 312 310 310 309 309 307 307 307 307 308 308 308 309 308 309 309 309 309 309 310 311 311 312 312 313 313 315 315 315 315 316 316 316 317 319 322 324 325 326 326 326 325 325 325 325 325 326 326 326 325 325 325 325 325 325 325 325 325 325 325 325 324 324 325 324 324 324 324 324 323 322 321 320 318 313 305
327 319 317 322 320 316 318 318 313 310 314 314 313 314 316 316 313 314 314 312 312 310 309 309 307 307 306 306 306 306 307 307 308 307 307 307 307 308 308 309 309 310 311 312 312 313 314 315 316 316 316 316 316 316 317 319 321 323 325 325 325 325 325 325 325 325 325 325 325 325 324 324 324 323 324 324 324 324 324 325 325 324 324 323 323 324 324 324 324 324 324 323 322 321 319 317 311
327 322 318 321 320 316 317 318 315 313 316 316 315 315 316 316 313 312 312 311 312 310 308 308 306 305 305 305 305 305 306 306 306 305 306 306 307 307 308 308 309 310 310 311 312 312 313 314 315 315 315 315 315 315 316 317 319 321 323 323 323 324 324 325 325 325 325 325 325 325 325 325 324 324 324 325 325 324 324 324 324 324 323 323 322 322 322 322 322 322 322 322 322 321 320 319 316
324 322 321 322 321 319 317 317 314 312 314 316 316 316 316 317 315 311 310 311 311 309 307 306 304 303 303 304 304 304 304 304 304 304 305 306 306 307 308 308 309 309 309 309 310 310 310 310 311 312 312 312 313 314 315 315 317 319 321 322 322 323 323 323 324 324 325 325 325 325 325 326 325 325 326 326 326 326 326 325 324 324 324 324 323 322 322 322 322 322 322 321 321 320 320 320 319
317 317 319 319 318 318 315 316 315 310 314 318 316 316 318 318 316 310 308 311 310 307 306 304 303 302 302 302 302 302 303 303 303 304 305 305 306 307 307 307 308 308 308 308 308 308 308 308 309 309 309 309 310 310 311 313 315 317 319 321 321 321 321 322 322 322 322 322 323 323 324 325 324 324 324 325 325 325 326 326 325 325 324 324 324 323 322 322 322 321 321 320 319 319 319 319 319
313 315 316 316 316 316 314 315 314 310 313 319 316 316 318 317 315 309 306 309 307 304 304 302 301 301 301 301 301 301 301 302 303 304 305 305 306 306 307 307 307 308 308 308 308 308 308 308 308 308 307 308 308 308 308 309 310 312 314 316 318 318 319 320 320 321 321 321 321 321 322 322 322 322 322 323 323 323 323 323 323 323 322 323 322 322 322 321 321 321 320 319 319 319 319 319 318
314 315 315 317 317 317 318 316 313 312 314 321 319 316 318 316 313 308 304 305 304 303 303 302 301 301 300 301 300 301 302 302 304 304 305 306 306 307 307 307 307 307 307 307 307 307 308 308 308 307 307 307 307 307 307 307 308 309 310 312 313 315 315 316 317 318 319 319 319 320 320 320 320 320 320 321 321 321 321 321 320 320 320 320 319 319 320 320 320 320 320 319 319 319 319 318 317
317 317 316 320 318 317 322 319 315 314 313 318 318 315 317 315 311 307 304 303 302 302 302 301 300 300 300 300 300 301 302 303 304 304 305 306 306 307 306 306 306 306 306 306 307 307 307 307 307 307 307 307 307 307 307 307 307 307 309 310 310 311 312 313 314 314 315 315 316 317 318 318 318 318 319 319 319 319 319 319 319 318 318 318 318 318 318 318 317 317 317 317 317 317 317 317 317
320 319 317 319 318 317 321 319 317 316 315 315 315 318 324 322 317 310 305 304 303 301 301 300 300 299 299 300 300 301 302 302 303 304 305 306 306 306 306 306 306 306 306 305 305 306 306 306 306 306 306 307 307 307 306 306 306 306 307 308 308 308 309 310 310 309 309 309 310 311 311 312 313 314 315 316 317 317 317 317 317 317 316 316 316 316 316 316 316 315 315 314 314 314 314 315 315
323 322 319 318 319 319 319 317 316 319 321 316 313 322 331 330 325 314 307 307 304 302 301 300 299 299 299 300 300 300 301 302 303 304 305 305 306 305 305 305 305 305 305 305 305 305 305 305 305 306 306 306 306 306 306 306 306 306 306 306 306 306 306 306 305 305 305 305 305 305 305 306 307 307 308 310 311 312 313 313 313 314 314 314 314 314 314 314 314 314 313 313 313 313 312 312 312
322 321 319 317 316 317 318 317 317 322 323 315 311 318 326 328 327 317 310 309 306 303 301 299 299 299 299 299 299 300 301 302 303 304 305 305 305 305 305 305 305 305 304 304 305 304 305 305 305 305 305 305 305 305 305 306 306 306 306 306 306 306 305 304 304 303 303 303 303 303 303 304 304 304 304 304 305 305 306 307 307 308 308 309 309 310 310 311 312 312 311 311 312 312 311 310 310
324 319 318 320 318 319 320 318 319 321 319 318 317 316 317 321 322 316 312 311 307 305 303 300 298 298 298 299 299 300 301 303 304 304 305 305 305 305 304 304 304 304 304 304 304 304 304 304 304 304 304 304 304 304 304 305 305 305 305 305 305 305 304 303 303 303 303 303 303 303 302 303 303 303 303 303 303 303 303 303 303 303 304 304 305 306 307 308 309 309 309 310 310 310 309 309 308
323 317 316 320 320 321 322 319 320 317 313 320 323 315 314 320 322 316 311 311 311 308 305 302 299 298 298 299 299 300 301 303 304 304 304 304 304 304 304 304 304 304 304 304 304 304 304 304 304 304 304 304 303 303 303 303 304 304 304 304 304 304 303 302 302 302 302 302 302 302 302 302 302 302 302 302 302 302 302 302 302 302 302 302 302 303 303 304 305 306 307 308 308 308 308 308 307
315 312 315 318 318 320 321 320 320 316 313 321 323 316 316 322 326 320 312 312 315 311 306 302 299 298 298 298 299 300 301 303 303 304 304 304 304 304 304 304 304 304 303 303 303 303 303 303 303 303 303 303 303 302 302 302 302 302 303 303 302 302 301 301 301 301 301 300 300 300 300 300 301 301 301 301 301 301 301 301 301 301 301 301 301 301 301 301 302 302 303 304 305 306 307 307 307
308 312 318 321 320 319 319 320 318 315 319 322 319 316 315 319 325 322 314 311 310 308 306 302 299 298 297 298 298 299 301 302 303 303 303 304 303 303 303 303 303 303 303 303 303 303 303 303 302 303 302 302 302 301 301 301 301 301 301 300 300 300 299 299 299 299 299 299 299 299 299 299 299 299 300 300 300 300 300 300 300 300 300 300 300 300 300 300 300 300 300 301 301 302 303 304 305
310 318 321 321 323 320 320 322 318 319 324 321 314 312 313 318 322 317 311 305 302 304 305 302 299 298 297 298 299 299 301 302 303 303 303 303 303 303 303 303 303 303 303 303 302 302 302 302 302 302 302 301 301 300 300 300 300 300 299 299 299 298 298 298 298 298 297 297 297 297 297 297 298 298 298 298 299 299 299 299 299 299 299 299 299 299 299 299 299 299 299 299 299 300 300 301 302
316 321 321 322 323 320 321 322 319 320 321 315 312 313 313 318 319 313 308 303 299 300 302 301 299 298 298 298 299 299 301 302 302 303 303 303 303 303 303 303 302 302 302 302 302 302 302 301 301 301 301 301 300 300 299 299 299 299 298 298 297 297 297 297 296 296 296 295 295 295 295 295 295 296 296 296 296 296 296 297 297 297 297 298 298 298 298 298 298 298 298 298 298 298 298 299 299
316 319 322 323 321 320 323 320 316 318 317 311 310 313 315 319 315 308 304 301 297 297 300 301 299 298 299 299 299 300 300 302 303 303 303 303 303 303 302 302 302 302 302 301 301 301 301 301 300 300 300 299 299 298 298 298 298 297 297 297 296 296 296 295 295 295 294 294 294 293 293 293 293 293 293 293 293 293 293 293 294 294 294 295 295 296 296 296 296 297 297 297 297 297 297 297 298
314 317 319 320 323 324 323 321 319 319 318 312 309 313 320 321 312 303 301 298 297 298 299 300 299 299 299 298 299 300 301 302 303 303 303 303 302 302 302 302 301 301 301 301 301 300 300 300 299 299 299 298 298 297 297 296 296 296 295 295 295 295 294 294 294 293 293 293 292 292 291 291 291 291 290 290 290 290 291 290 291 291 291 291 292 292 293 293 293 294 294 295 295 296 296 296 296
312 313 315 317 321 321 318 317 317 316 318 316 313 316 320 315 306 300 299 298 297 298 298 298 299 298 298 298 299 300 301 303 303 303 303 302 302 302 301 301 301 301 300 300 300 299 299 299 298 298 297 297 296 296 295 295 294 294 294 294 293 293 292 292 292 292 291 291 290 290 290 290 290 289 289 289 289 289 289 289 289 289 289 289 289 290 290 290 291 291 291 291 292 292 293 294 294
313 311 317 317 314 317 318 316 312 312 316 317 315 318 315 310 307 302 300 300 298 298 297 297 298 298 298 299 300 301 302 303 302 302 302 302 301 301 301 301 300 300 299 299 298 298 297 297 296 296 295 295 294 294 294 293 293 292 292 292 292 291 291 291 291 291 290 290 290 289 289 289 289 289 289 289 289 289 289 289 289 289 288 288 288 288 288 289 289 289 289 289 289 289 289 290 291
316 316 318 314 311 317 319 318 317 315 317 317 315 317 316 315 313 305 301 302 301 299 298 297 297 297 298 299 300 302 302 302 302 302 301 301 301 300 300 300 299 299 298 298 297 297 296 295 294 294 293 293 292 292 291 291 291 291 291 290 290 290 290 290 290 290 290 289 289 289 289 289 289 289 289 289 289 289 289 289 289 289 288 288 288 288 288 288 288 288 288 288 288 288 288 288 288
313 315 313 312 316 320 317 317 320 318 318 319 319 316 315 315 314 310 308 305 302 301 300 298 297 297 298 300 301 301 302 302 302 302 301 301 300 300 300 299 299 298 298 297 297 296 295 294 293 292 291 291 290 290 290 289 289 289 289 289 289 289 289 289 289 289 289 289 289 289 289 289 289 289 289 289 289 289 289 289 289 289 289 289 288 288 288 288 288 288 288 288 288 288 288 288 288
309 310 310 312 317 319 317 316 318 319 318 319 320 317 317 317 315 317 316 306 301 302 301 299 298 298 300 301 301 302 302 302 302 302 301 301 300 300 299 298 298 298 297 296 295 294 292 291 291 290 290 289 289 289 289 289 289 289 289 289 289 289 289 288 289 289 289 289 289 289 289 289 289 289 289 289 289 289 289 289 289 289 289 289 289 289 289 289 289 289 288 288 288 288 288 288 288
313 314 314 314 313 314 316 315 315 319 319 321 320 316 319 320 313 316 315 305 301 302 301 299 298 300 302 302 303 303 303 303 302 302 301 301 300 299 298 298 298 297 296 294 292 291 291 290 290 289 289 289 289 289 289 289 289 289 289 289 289 289 289 289 289 289 289 289 289 289 289 289 289 289 289 289 289 289 289 289 289 289 289 289 289 289 289 289 289 289 289 289 289 288 288 288 288
316 316 316 316 314 315 317 315 314 315 316 321 320 315 318 317 308 309 308 302 300 300 299 299 299 301 303 303 303 303 303 303 302 302 301 301 300 299 298 298 297 296 294 292 291 290 290 290 289 289 289 289 289 289 289 289 289 289 289 290 290 290 290 289 289 289 289 289 289 289 289 289 289 289 289 289 289 289 289 289 289 289 289 289 289 289 289 289 289 288 288 288 288 288 288 288 288
Wind_Speed
7 6 7 6 6 5 5 3 0 2 4 2 2 1 2 3 2 1 3 3 2 3 3 2 1 3 1 1 3 3 4 4 3 2 1 4 2 3 2 1 1 1 3 6 8 12 16 17 17 17 16 16 16 16 15 14 13 13 13 12 11 11 11 12 12 12 12 13 12 12 10 9 8 6 5 4 4 5 7 6 6 7 7 7 8 6 5 5 4 5 5 4 4 3 3 3 4
7 6 6 4 4 4 4 1 2 3 5 2 2 2 3 2 1 3 5 4 2 1 1 1 1 2 2 2 2 2 3 5 5 4 3 4 3 3 2 2 1 2 3 4 7 9 13 16 17 16 16 16 16 15 15 14 13 13 12 12 11 11 12 12 12 11 12 12 12 11 10 8 7 6 5 4 5 6 7 7 7 7 7 8 8 7 6 6 5 6 6 5 4 4 3 3 4
6 5 5 2 2 2 1 2 3 2 5 2 3 4 2 1 4 7 8 6 2 1 1 1 1 2 1 1 1 1 2 4 4 6 4 3 3 4 3 4 2 3 3 4 5 8 11 14 16 16 16 16 15 15 15 14 14 13 12 12 12 12 12 12 12 12 12 13 12 11 10 9 8 7 6 6 6 7 7 8 7 7 8 8 8 7 6 7 7 6 7 5 4 3 4 5 5
5 3 4 2 2 1 2 4 2 4 3 2 2 4 2 3 7 7 6 5 3 1 2 2 1 1 1 2 2 2 4 4 3 4 3 3 4 4 4 3 2 3 4 4 5 6 9 12 15 16 16 16 15 15 15 15 14 14 13 12 13 12 12 13 13 13 13 14 13 12 11 10 9 8 7 7 8 9 8 8 7 7 8 9 8 8 7 7 7 7 6 5 4 4 5 6 7
5 3 4 3 2 0 3 3 2 4 3 4 1 4 5 6 7 6 4 3 3 2 2 2 2 2 3 3 2 2 2 2 2 3 3 4 4 4 5 4 2 3 4 5 5 5 7 10 13 15 16 16 16 16 15 15 15 15 14 13 13 13 13 13 14 14 14 15 14 13 12 11 10 9 8 8 8 8 7 7 7 7 9 9 9 8 8 8 8 7 6 6 6 6 7 8 8
4 2 5 3 2 1 3 3 2 0 4 5 2 5 6 6 6 4 3 2 3 2 3 3 2 2 2 3 3 3 2 3 4 4 4 4 4 4 4 5 3 2 4 5 6 5 6 8 11 14 15 16 16 16 16 15 15 15 14 14 13 13 14 14 14 15 15 16 15 14 13 12 11 9 8 7 7 7 7 7 7 8 9 10 9 9 9 9 10 8 8 9 8 8 9 10 9
4 3 4 2 3 3 3 3 3 2 2 5 3 4 6 6 6 2 1 3 1 2 4 3 2 3 2 3 4 3 4 6 6 5 5 4 3 3 4 5 4 2 3 5 6 6 5 7 9 12 14 16 17 17 16 16 16 16 15 14 13 14 14 15 15 15 16 16 16 15 14 13 12 10 8 6 7 8 8 7 7 9 10 11 11 10 10 11 11 9 9 10 10 11 12 12 11
5 4 4 2 2 4 4 2 3 2 1 3 4 5 6 5 4 2 1 2 1 3 3 4 3 2 2 4 4 5 7 8 7 6 6 4 2 3 4 6 5 3 3 4 6 7 7 7 8 11 13 15 17 17 17 16 16 16 16 15 14 14 15 15 15 16 17 17 17 16 15 13 12 10 8 7 9 9 8 7 8 8 10 10 11 11 11 12 13 12 13 14 13 13 13 12 11
6 5 3 3 2 3 3 1 2 3 3 4 5 5 4 3 3 1 0 1 1 3 4 4 2 2 5 7 7 7 6 7 8 6 6 5 3 3 2 4 6 4 3 3 6 8 8 8 8 9 12 14 16 17 17 17 17 17 16 15 15 15 15 16 16 16 17 17 17 16 15 12 11 10 9 9 10 10 9 8 8 8 9 10 10 11 12 13 15 16 17 16 14 12 11 10 10
5 5 2 2 3 3 3 1 1 2 4 5 6 7 3 2 3 0 1 2 1 3 5 2 3 4 5 9 10 7 5 8 9 6 6 6 5 4 3 2 4 5 3 3 5 8 9 9 9 9 11 13 15 17 17 17 18 18 17 16 17 16 16 17 17 17 17 17 17 16 15 12 11 11 11 11 11 12 11 10 9 9 9 10 11 12 14 15 16 18 17 15 12 10 9 9 8
4 5 3 4 4 2 1 2 4 4 6 6 6 5 2 3 2 1 2 2 0 2 5 2 2 4 4 7 9 9 9 10 7 5 7 7 7 7 6 4 3 5 4 4 5 7 9 10 10 10 10 12 14 16 16 18 18 18 18 17 17 17 17 17 18 17 17 17 17 16 15 13 13 12 12 12 12 13 12 12 11 10 9 9 11 12 14 14 16 18 17 12 9 8 7 7 7
2 3 4 4 3 1 2 2 5 6 7 5 3 2 3 3 1 2 2 1 1 2 4 2 2 3 1 4 9 11 10 9 7 6 7 9 10 10 10 7 5 6 6 4 5 6 8 10 11 11 11 12 14 15 16 17 18 18 18 18 18 18 17 18 18 18 18 17 17 16 15 14 14 13 13 14 13 14 14 14 14 12 11 10 10 11 12 13 14 16 13 8 7 7 6 6 6
2 1 4 3 2 2 2 2 4 5 6 3 2 4 6 4 3 4 2 1 3 2 3 1 2 2 2 6 9 8 8 11 12 10 9 11 13 13 12 11 9 9 9 7 5 6 8 10 11 12 13 13 14 15 16 17 18 19 18 18 18 17 17 18 19 18 18 17 17 17 16 15 15 15 15 15 15 16 15 15 16 14 12 11 11 11 11 11 11 11 9 6 7 7 6 6 5
3 2 4 2 1 1 3 1 2 1 2 3 4 7 8 6 6 7 3 3 4 2 2 2 2 2 4 6 7 6 10 17 18 16 14 13 13 13 14 13 12 12 11 9 6 6 8 10 11 13 14 15 15 16 17 17 18 19 19 18 18 18 17 18 19 18 18 17 18 18 18 17 17 16 16 16 17 18 17 17 17 15 14 13 12 11 11 10 10 9 7 7 7 7 6 6 6
4 2 4 3 2 2 2 1 1 4 1 3 5 10 11 8 8 9 5 3 4 3 2 3 3 4 4 4 10 14 17 20 19 18 15 12 12 13 14 14 14 14 14 11 8 7 8 10 12 13 14 16 16 17 17 17 18 19 19 18 18 18 18 18 18 19 19 18 19 20 20 19 18 17 17 18 18 19 19 18 18 17 15 14 13 12 12 11 10 8 7 7 7 7 7 7 7
4 3 4 3 1 1 1 2 2 3 3 4 6 11 9 8 8 9 7 6 8 9 5 5 6 7 10 12 17 20 20 21 19 17 13 11 11 12 14 15 16 17 16 14 11 10 9 10 12 14 15 16 17 18 18 18 18 19 19 19 19 19 19 19 18 19 19 19 19 20 21 20 19 19 19 20 20 21 21 19 19 19 18 16 14 13 13 12 10 8 7 7 8 8 8 8 8
3 3 4 2 1 2 2 4 3 2 5 5 6 9 4 6 8 8 10 11 13 13 12 12 13 14 16 18 19 20 19 19 17 16 15 14 13 13 14 15 17 17 18 17 15 13 12 11 12 14 16 16 17 18 18 19 18 19 20 20 20 20 20 20 19 19 19 19 19 21 21 21 21 21 21 21 21 22 21 20 20 20 19 17 15 14 14 13 11 9 8 8 9 9 10 9 9
2 3 3 1 3 3 4 6 5 3 3 5 6 8 3 5 8 9 10 11 13 17 21 20 18 16 15 15 15 16 16 16 17 16 16 16 17 16 15 15 17 18 18 18 17 17 15 14 13 14 15 17 18 18 19 19 19 20 20 21 21 22 22 21 21 20 20 20 20 21 22 22 21 22 22 22 22 22 22 21 21 20 19 18 16 15 15 14 12 10 9 9 10 10 11 11 10
2 3 2 3 5 5 5 7 5 3 4 7 9 9 5 6 9 9 7 9 12 14 23 24 19 18 17 17 17 16 17 17 17 15 16 17 17 17 16 16 17 18 18 18 18 18 17 16 15 14 15 16 18 19 19 20 20 21 21 21 22 22 22 22 23 22 21 21 21 21 22 22 22 22 23 22 22 22 22 22 22 21 19 19 17 15 16 16 14 11 10 10 11 11 12 11 11
1 3 1 5 6 5 6 7 8 8 8 8 9 8 6 9 10 7 5 9 12 10 17 18 18 23 24 23 22 20 19 18 17 16 17 18 17 18 18 18 19 20 20 20 20 19 18 17 16 15 14 16 18 19 20 21 21 22 22 22 23 23 23 24 23 23 23 23 22 22 22 22 22 23 23 23 22 22 22 23 23 21 20 19 17 16 16 17 16 14 11 10 11 13 13 12 11
2 4 3 5 4 2 8 9 10 10 7 7 10 9 9 11 9 7 7 8 8 13 20 17 19 27 27 25 22 19 17 16 16 16 17 17 17 17 18 19 19 20 21 21 20 20 20 18 17 16 15 15 16 18 20 21 21 22 23 23 24 24 25 25 25 25 24 24 24 23 23 23 23 23 23 23 22 23 23 23 23 22 20 18 17 15 15 17 17 16 13 10 12 14 14 13 12
2 4 6 5 3 2 10 10 11 11 8 10 12 9 9 10 9 11 9 5 9 20 26 24 25 28 25 22 19 16 14 13 12 13 14 14 14 14 14 15 16 17 18 18 19 19 20 18 17 15 14 14 14 16 18 20 21 22 23 23 24 25 26 27 27 26 26 26 25 25 24 24 24 24 24 24 23 24 24 24 24 23 21 19 17 15 15 16 18 18 15 11 13 15 15 15 14
3 4 6 8 7 7 12 13 13 14 12 13 11 10 12 9 11 15 13 15 22 26 26 25 25 22 19 18 15 14 13 12 10 10 11 12 12 12 12 13 14 16 17 18 17 17 17 17 16 14 13 12 12 13 15 17 19 21 22 22 23 24 25 27 28 28 28 27 26 26 25 25 25 25 25 24 24 25 25 25 25 25 23 21 18 16 16 17 18 18 17 13 14 16 17 16 16
4 3 4 7 9 9 13 14 14 16 16 18 15 14 15 10 9 13 18 26 26 21 20 20 17 16 16 15 13 12 13 13 11 9 9 10 11 11 12 13 16 17 17 17 17 16 15 14 14 13 10 10 10 11 13 14 15 18 19 21 22 23 23 25 26 28 29 29 28 27 26 26 26 26 25 25 25 25 26 26 26 26 24 22 20 18 18 18 18 19 18 16 16 18 19 18 17
4 4 5 5 8 10 14 16 19 20 19 20 15 14 20 17 10 11 21 25 16 12 14 14 13 14 14 13 12 11 10 10 9 8 8 9 9 11 13 15 17 17 16 15 15 15 14 13 12 10 8 7 8 9 11 12 13 14 16 18 19 21 22 23 24 26 28 29 29 29 27 27 27 27 26 25 25 26 26 26 27 27 25 24 23 21 20 19 19 19 19 17 17 19 20 20 19
4 5 5 7 11 14 16 17 20 18 16 16 10 12 21 15 5 9 17 12 6 8 11 11 14 15 12 10 10 9 8 7 7 8 8 10 10 11 13 15 16 15 14 14 13 13 13 13 11 11 9 8 8 9 9 10 11 13 13 15 16 18 19 20 22 24 26 27 28 29 28 28 27 27 27 26 26 26 27 27 27 27 27 27 26 24 22 22 21 21 21 19 18 20 22 22 21
2 3 6 10 14 16 16 18 22 18 14 14 9 11 15 7 1 6 12 6 6 10 10 12 14 11 8 6 6 7 8 8 8 8 9 10 11 12 12 11 11 12 12 12 12 12 12 13 12 12 12 10 10 9 8 9 10 11 11 13 14 16 16 17 18 20 23 24 25 26 27 28 28 28 27 27 27 27 28 29 29 29 30 29 27 26 25 24 22 21 21 21 20 20 22 23 23
3 5 8 11 13 16 17 16 18 13 7 8 8 7 9 1 2 9 13 7 10 12 12 12 10 6 4 3 4 6 7 9 10 10 10 11 11 11 10 9 9 9 10 11 11 11 10 11 12 12 13 12 11 9 8 8 9 9 10 11 12 13 14 15 16 16 18 19 20 21 23 25 26 27 27 27 27 27 28 29 29 30 30 29 28 28 28 26 24 23 22 22 22 22 22 25 25
4 4 5 9 9 11 15 10 6 3 2 4 3 4 6 2 7 12 12 9 12 13 12 11 7 3 1 2 4 4 6 7 9 11 10 9 8 8 9 9 9 9 10 10 10 10 9 8 9 10 11 11 11 10 8 8 8 9 9 10 10 11 13 14 14 14 15 15 17 18 19 20 22 23 25 26 26 26 27 27 28 29 29 29 29 30 28 27 25 24 22 22 23 23 24 26 27
4 2 1 5 7 7 8 0 1 1 2 4 4 2 7 6 11 12 11 11 14 15 12 9 5 1 1 1 2 3 4 5 6 7 7 7 7 7 7 8 8 9 9 9 10 10 8 8 8 9 10 11 11 11 9 7 8 9 9 9 9 10 10 12 12 13 13 14 15 15 16 16 17 19 20 22 23 24 25 26 27 27 27 27 27 27 26 26 25 24 23 23 23 24 25 27 28
3 2 1 3 2 5 6 2 1 3 3 5 6 2 6 9 13 13 11 12 17 17 10 7 3 1 2 2 1 1 2 3 4 4 5 5 6 6 6 6 7 7 8 9 9 9 9 9 9 10 10 10 10 10 9 7 7 8 9 9 8 8 9 9 10 10 11 12 13 14 14 14 15 16 17 19 20 20 22 24 24 24 23 24 24 24 24 25 25 24 23 23 23 23 24 27 29
2 1 3 3 1 5 10 6 3 2 1 3 5 2 6 8 13 13 11 13 19 18 9 4 1 3 4 4 3 2 3 3 3 2 2 3 4 5 5 5 6 6 7 7 7 8 8 7 7 7 7 7 8 8 8 7 6 6 7 7 7 7 8 8 8 9 10 10 12 13 14 14 14 15 16 17 19 19 19 20 20 20 21 21 22 22 23 24 24 24 24 24 24 23 23 25 28
3 1 4 3 3 3 7 5 1 2 2 1 2 2 5 6 12 17 16 17 19 13 5 2 4 5 6 6 5 5 4 3 2 3 3 4 4 5 6 6 7 7 6 5 5 5 4 3 3 3 4 4 5 5 6 5 5 5 5 5 6 6 7 7 8 8 8 9 11 12 13 14 14 15 15 16 17 17 17 17 17 18 19 20 21 21 22 22 23 24 25 24 24 23 23 23 25
3 0 3 4 4 3 3 4 3 5 4 1 1 1 7 9 15 25 21 18 17 9 4 5 7 7 9 9 8 7 6 5 5 6 7 6 6 6 6 6 6 7 6 6 5 4 3 2 1 1 1 1 2 2 3 3 3 3 3 3 4 5 5 6 6 7 7 8 9 10 12 13 13 14 14 15 16 16 16 17 17 18 18 19 20 21 21 22 23 24 25 25 25 25 24 23 22
4 3 3 4 3 4 4 4 3 5 4 2 2 3 10 11 14 22 19 17 15 10 7 8 10 10 11 12 11 11 10 10 11 10 9 8 7 7 7 6 6 6 7 7 6 5 4 4 3 2 2 2 3 3 2 1 2 1 1 2 2 2 3 4 4 5 5 6 7 9 11 12 13 14 15 15 16 16 17 17 18 18 19 20 20 20 22 23 23 24 25 26 26 26 26 24 23
6 5 4 4 4 5 5 5 5 2 4 5 4 5 9 10 11 13 17 14 12 10 7 10 12 13 14 15 15 15 15 16 14 12 11 10 10 10 9 9 9 8 8 8 6 6 6 6 5 4 4 4 3 2 1 1 1 1 1 1 1 1 2 2 3 3 3 5 5 7 8 9 10 12 13 15 16 17 17 18 19 20 20 21 21 22 23 23 24 23 24 25 26 27 27 26 25
4 3 3 4 5 6 5 5 5 1 0 5 4 4 7 10 9 9 14 11 11 12 9 13 15 15 16 17 18 18 19 18 16 16 16 15 15 15 15 14 14 13 14 15 14 14 14 13 11 11 10 8 6 5 4 3 1 1 1 1 0 1 1 1 1 1 2 3 4 5 6 6 5 6 7 9 12 14 16 19 20 20 20 21 22 22 22 23 24 24 24 25 26 27 27 26 25
2 2 3 4 5 6 6 5 5 1 2 4 2 3 8 9 5 8 12 9 11 11 11 14 15 17 17 18 19 19 19 19 20 22 22 23 23 23 23 23 22 23 24 24 24 23 21 20 19 18 17 14 13 12 10 8 7 5 3 2 1 0 1 2 2 2 2 2 3 4 5 5 6 7 8 8 9 11 12 14 15 16 18 19 21 23 23 22 23 23 25 26 26 26 27 26 25
2 2 2 4 3 4 7 5 4 2 2 3 2 2 9 8 3 7 10 10 10 12 13 13 14 17 17 18 18 19 20 22 24 26 27 28 28 28 28 28 28 28 28 27 27 26 25 25 24 23 21 20 19 17 15 15 13 10 8 7 5 2 2 2 2 3 5 5 6 6 7 7 7 8 9 9 10 10 10 10 10 11 13 15 16 18 19 20 21 23 25 26 26 27 26 26 26
3 3 2 4 3 1 4 4 4 2 1 2 2 2 7 4 4 6 9 12 14 16 16 15 16 17 16 16 17 19 21 24 26 27 29 29 29 29 30 30 29 28 29 29 28 28 27 27 26 25 25 24 23 22 20 18 15 13 11 9 8 6 5 3 2 3 4 6 7 8 9 10 11 11 11 12 13 14 14 14 14 14 14 15 15 16 17 17 19 20 21 23 24 26 26 26 27
3 5 5 5 5 5 6 4 4 2 2 2 1 3 5 3 1 2 6 10 13 14 16 16 16 16 16 16 18 20 22 24 26 28 29 29 29 29 29 29 28 29 30 30 29 29 28 27 27 26 26 26 25 24 22 19 17 15 13 11 11 9 7 5 4 5 5 4 4 6 7 9 12 13 14 16 18 19 19 20 20 20 20 20 20 20 19 19 19 19 20 20 21 23 24 26 28
4 5 9 10 8 7 6 3 5 3 3 3 4 4 4 5 4 2 4 5 7 10 13 14 13 14 15 17 18 19 21 24 26 28 28 28 28 28 28 28 28 29 30 29 28 28 27 27 26 26 26 26 26 25 23 21 19 18 16 15 16 15 13 13 13 13 12 11 9 7 7 7 9 10 12 13 15 17 19 21 21 22 23 24 24 24 23 22 22 22 21 21 21 22 23 25 28
2 4 8 9 6 5 4 2 1 0 2 3 3 1 5 6 6 3 4 5 5 6 9 10 11 13 14 15 16 18 22 24 26 27 27 26 27 26 27 28 28 29 28 26 26 25 25 25 25 25 25 25 25 24 23 21 21 20 20 19 19 19 19 18 18 16 15 14 13 10 9 8 8 8 9 10 11 12 14 16 17 19 20 21 22 23 23 23 23 22 22 22 22 21 22 24 26
3 4 5 6 6 6 6 5 3 2 2 4 3 1 3 4 6 4 5 7 5 4 5 6 8 11 12 14 15 18 21 24 25 26 25 25 25 25 26 26 26 25 24 23 23 23 23 22 22 22 22 23 22 21 20 20 20 20 20 19 19 19 19 19 17 16 15 14 13 13 13 12 11 10 10 9 9 10 10 11 13 14 15 16 17 18 19 20 21 21 22 23 22 21 20 21 23
6 3 6 6 6 6 5 6 2 1 1 4 4 1 1 5 5 3 4 4 1 1 2 1 6 9 11 13 15 18 21 23 24 24 24 24 23 23 23 22 22 21 20 20 20 20 20 19 19 19 19 20 19 18 18 18 18 17 17 17 17 17 18 17 15 14 14 14 14 14 14 14 14 14 13 13 12 12 11 11 11 12 13 14 14 15 15 16 18 19 21 22 23 23 22 21 22
4 6 7 5 5 5 4 5 3 2 1 4 6 4 2 5 5 3 2 2 3 3 4 3 6 8 10 13 15 18 20 22 22 22 22 21 21 21 20 19 18 18 18 17 17 16 16 16 15 16 17 17 16 15 15 15 15 14 14 14 14 14 14 13 11 11 12 12 12 13 14 14 15 15 15 15 15 15 14 13 12 12 12 12 13 14 15 16 16 17 18 20 22 24 24 24 24
6 7 5 5 5 4 3 2 4 2 3 6 6 6 5 3 5 3 3 1 2 3 3 4 6 8 11 13 15 17 19 20 20 20 20 19 18 17 15 15 15 15 14 13 13 13 13 14 14 14 15 14 13 13 13 13 12 12 13 12 12 12 11 10 9 10 11 11 12 13 14 14 14 14 14 15 15 15 16 16 15 14 13 12 12 13 14 15 16 17 18 18 19 21 23 25 26
6 4 3 3 4 3 4 4 3 1 5 5 4 4 5 4 4 3 2 2 2 3 4 7 9 11 13 14 16 17 18 19 18 17 17 16 15 14 12 12 12 12 11 11 12 12 11 12 12 12 12 12 12 12 12 12 11 11 12 11 11 12 11 11 12 12 13 13 14 13 12 12 12 12 12 13 14 14 15 16 16 16 16 16 15 14 14 14 15 16 17 18 19 20 21 23 25
5 4 5 3 3 3 3 3 0 3 6 3 2 2 4 5 5 2 3 4 4 6 7 13 16 17 18 17 17 18 18 17 16 15 14 13 12 10 10 9 9 9 9 10 10 10 10 10 10 10 10 10 10 10 10 10 10 11 12 12 12 13 13 13 14 14 15 15 15 15 15 14 14 14 14 14 15 15 16 16 17 17 18 18 18 18 17 16 16 15 16 16 17 19 20 22 23
4 5 4 3 2 0 3 3 2 4 4 2 2 1 1 5 3 2 3 4 4 6 8 20 23 22 21 20 18 18 17 16 14 13 11 10 8 8 7 7 7 6 7 7 7 8 8 8 8 9 9 9 8 9 9 9 9 11 11 12 12 13 13 14 15 16 16 16 17 18 18 18 18 18 17 17 16 16 16 16 17 17 17 18 18 18 18 18 18 18 17 17 17 17 18 20 22
3 4 5 4 4 4 4 3 3 4 3 2 2 0 3 3 1 2 2 2 3 3 11 22 23 21 21 19 18 18 17 16 13 11 9 7 6 5 5 4 4 4 5 5 5 5 5 6 6 7 7 7 7 7 7 8 9 10 11 11 11 12 13 14 14 15 16 16 17 18 18 18 19 19 18 18 17 17 17 17 17 17 17 18 18 18 18 19 19 19 19 18 18 18 18 18 19
2 2 4 2 4 5 2 3 4 2 2 3 2 2 3 3 1 1 2 4 5 7 14 19 20 20 20 19 19 19 17 15 12 9 7 5 4 4 3 2 2 2 2 2 3 3 4 4 4 4 4 4 4 5 5 6 7 8 9 9 10 11 12 12 13 14 15 16 17 17 18 18 18 18 18 18 19 19 19 19 19 19 19 19 19 19 19 19 19 20 20 21 20 19 19 18 18
2 2 3 4 4 6 3 2 1 3 1 3 1 2 4 1 0 0 3 4 3 5 10 15 19 19 19 20 20 19 16 14 10 8 6 5 4 3 2 1 0 0 1 1 2 2 2 3 3 3 3 3 3 3 4 5 5 6 6 7 8 9 10 11 12 13 14 15 15 16 16 16 16 17 17 18 18 19 19 20 20 20 20 21 21 21 21 21 20 21 21 22 22 22 22 20 20
4 2 5 3 2 4 3 1 3 3 3 4 1 4 4 2 2 1 2 2 3 4 7 11 15 17 19 21 21 18 15 12 9 8 6 5 5 4 4 3 2 1 1 1 1 2 2 3 3 3 3 3 3 4 4 4 4 4 5 5 6 7 8 9 10 10 11 12 13 14 15 15 16 18 18 19 20 20 21 21 21 22 22 22 23 23 23 23 23 23 23 23 24 24 24 23 22
4 3 3 3 2 1 2 2 2 1 3 4 3 3 4 4 4 3 5 7 7 6 7 8 11 16 20 21 21 18 15 12 9 8 7 6 6 6 6 4 3 3 2 1 1 0 1 2 2 2 2 3 4 4 5 4 4 5 5 7 7 8 9 10 10 11 11 12 12 13 14 15 16 17 18 19 20 21 22 23 24 25 25 25 25 25 26 26 25 25 25 25 25 26 27 26 25
2 1 1 1 2 3 2 2 3 2 2 3 5 4 3 5 6 7 10 11 11 10 8 8 14 20 23 23 21 17 13 11 9 8 8 8 8 8 7 5 5 4 3 3 2 3 4 4 4 4 4 4 5 5 5 5 5 7 8 9 9 9 10 11 11 12 13 14 15 16 16 17 18 19 19 20 21 22 23 24 25 26 27 28 28 28 29 29 29 28 28 28 28 28 29 29 28
2 2 2 1 0 2 1 1 3 3 3 2 4 5 5 4 3 7 9 10 12 13 11 11 18 25 26 24 20 15 11 9 9 9 9 9 9 9 8 7 6 5 5 4 4 5 5 4 3 3 3 3 3 4 5 6 7 8 9 10 11 11 12 13 14 15 16 17 19 20 21 22 23 23 24 24 24 24 25 25 25 26 27 28 29 29 30 31 32 32 32 31 31 31 31 31 31
5 5 5 4 3 3 1 3 1 2 3 4 4 6 7 4 1 3 6 8 12 15 15 15 22 28 27 23 18 13 10 9 10 10 10 10 9 9 9 8 7 6 5 5 5 4 3 3 2 2 1 2 3 4 6 7 8 9 10 11 12 13 14 15 16 17 19 20 22 23 24 25 25 26 27 27 27 27 27 28 27 28 28 28 29 29 30 31 32 33 33 33 33 33 33 33 33
Wind_Direction
310 299 295 298 302 294 280 273 148 1 65 79 316 23 234 213 203 243 284 287 302 262 227 255 230 186 201 242 221 239 225 196 193 128 204 258 304 323 351 45 172 114 150 183 198 198 192 191 197 203 208 209 213 214 217 221 221 224 224 221 215 215 213 207 202 200 197 189 188 186 183 184 187 192 196 209 218 228 222 210 198 185 179 164 152 163 176 182 201 200 192 175 171 178 181 195 188
318 308 306 296 310 306 256 273 89 354 51 72 287 176 258 309 300 228 220 225 227 268 260 224 195 217 242 269 260 282 250 243 241 219 254 268 286 305 329 339 265 171 157 179 199 204 200 196 197 201 207 212 216 218 220 223 226 227 227 225 221 220 215 212 208 206 206 199 197 193 191 193 201 209 216 232 241 243 240 230 211 194 183 166 155 164 184 199 211 209 201 193 187 195 204 213 207
334 323 322 286 299 323 235 44 89 63 74 109 273 243 294 7 230 233 217 226 266 308 337 255 175 220 199 3 274 195 243 270 262 236 259 273 286 317 320 317 284 214 185 176 196 205 207 202 200 202 204 209 215 220 221 223 226 227 229 229 227 226 222 219 215 212 211 207 205 201 201 205 214 223 236 254 260 255 248 241 224 207 188 168 163 172 187 204 218 217 209 207 201 218 228 223 224
350 351 345 286 261 344 64 46 119 115 110 180 280 270 254 192 228 240 240 267 268 251 319 317 11 238 229 343 277 239 268 280 265 227 255 299 318 337 341 335 287 241 211 190 193 201 209 206 205 205 205 207 212 217 220 223 226 227 228 228 229 229 228 226 223 220 216 213 210 208 210 215 221 227 244 261 265 257 246 237 224 212 192 176 175 182 192 206 222 224 219 223 231 254 250 239 237
358 16 3 311 242 22 80 73 106 100 168 184 102 273 246 207 227 252 279 303 222 213 313 301 351 311 279 288 254 244 291 298 263 238 276 317 341 356 3 4 317 258 229 210 200 200 206 207 209 209 209 209 211 216 219 223 226 228 228 227 228 227 227 227 226 225 222 219 215 213 218 222 226 237 255 267 263 248 234 223 214 208 195 187 188 194 203 216 227 231 232 239 254 274 271 257 247
351 3 0 6 101 91 96 93 99 6 218 173 139 259 250 215 214 257 305 84 166 243 295 286 345 331 309 298 261 252 297 319 298 282 292 312 350 8 14 13 356 277 242 223 211 208 208 209 210 212 214 213 214 217 218 223 226 230 231 228 228 228 228 227 225 225 224 222 219 218 223 227 233 246 260 263 250 225 210 205 202 202 196 195 200 207 214 227 239 243 241 242 256 277 278 266 256
342 325 339 34 68 38 94 117 177 236 232 175 177 244 257 240 213 256 1 99 116 287 288 288 347 343 324 333 304 287 307 306 298 287 286 300 345 6 15 15 7 322 261 239 226 217 216 216 213 214 217 217 219 221 221 224 227 232 235 233 232 232 232 231 228 226 225 222 218 219 225 230 237 248 254 249 233 211 200 197 196 201 200 202 209 217 222 235 249 253 250 252 266 277 271 263 260
355 340 352 67 43 26 87 111 221 220 255 223 241 250 274 286 238 248 73 104 333 299 300 289 344 13 289 322 306 300 315 311 305 280 271 288 324 347 1 20 18 356 299 255 240 228 226 225 219 217 218 220 223 226 226 226 230 235 238 238 237 237 236 235 233 230 229 225 217 218 225 230 237 245 247 237 224 212 210 206 200 205 209 214 221 230 239 251 260 265 266 272 281 278 266 258 260
355 349 0 62 71 32 49 12 283 244 271 284 288 270 293 314 247 255 75 70 348 311 322 283 294 334 301 313 302 303 315 320 321 281 259 273 293 308 328 25 30 10 331 275 251 241 236 234 228 222 221 221 225 229 230 230 232 236 239 240 240 240 238 236 236 234 232 230 222 220 226 231 236 245 249 240 224 221 226 220 207 208 219 228 237 247 255 262 267 271 273 281 286 275 263 259 257
349 10 41 68 77 38 13 304 302 259 265 289 288 279 312 312 248 333 67 51 41 333 337 297 247 263 297 309 305 320 329 329 326 283 259 270 287 286 272 350 28 20 343 289 258 249 245 242 236 229 225 223 226 230 231 232 234 237 240 240 241 241 239 238 238 237 235 234 229 225 229 232 235 245 253 248 235 229 230 226 216 214 225 237 248 255 259 265 271 276 278 287 289 266 259 261 253
343 17 63 75 66 49 87 241 291 284 279 302 294 277 307 306 288 16 37 30 137 316 327 327 258 255 283 294 297 318 327 335 335 293 277 279 287 280 267 276 349 12 344 293 260 251 247 246 243 237 230 226 228 231 232 233 235 237 240 241 241 242 240 239 240 240 238 236 231 228 231 232 234 240 247 250 246 239 234 231 229 228 235 248 259 264 267 270 272 274 280 290 282 257 256 259 252
351 6 52 85 106 178 187 224 280 290 306 327 304 318 350 307 315 322 327 342 261 295 303 294 296 284 295 284 302 323 338 357 2 336 301 291 290 280 276 276 297 338 334 299 266 256 248 247 246 243 238 232 230 232 234 233 235 237 239 241 242 242 240 240 241 242 240 236 232 229 232 233 236 239 241 245 247 247 242 238 238 241 248 260 272 279 278 276 274 275 283 283 261 256 259 256 254
48 120 72 88 149 165 167 220 269 303 336 334 275 336 343 307 332 322 280 289 285 296 311 263 271 291 280 286 306 336 358 349 344 338 315 301 294 281 276 276 288 311 318 306 278 265 254 249 246 246 243 237 234 233 234 234 235 237 239 240 241 243 241 240 242 242 241 237 234 232 232 234 236 238 239 241 243 247 248 246 245 247 255 268 281 289 286 282 282 283 291 276 253 256 255 252 250
68 143 94 103 69 115 172 274 322 55 350 307 315 338 335 318 338 332 309 311 292 273 312 252 238 294 294 296 306 323 333 328 327 325 317 307 295 282 273 272 282 296 306 306 289 275 264 256 249 245 244 240 239 236 235 234 234 237 239 240 241 243 242 242 243 242 242 238 236 236 235 236 237 237 238 238 239 243 248 252 252 252 259 272 284 292 290 287 286 291 293 269 252 251 247 243 241
73 101 93 107 33 359 201 252 60 110 209 285 353 346 334 322 332 330 318 302 286 289 273 229 237 293 297 288 296 307 314 316 321 324 322 317 301 281 271 270 279 288 296 299 290 283 278 267 256 248 244 241 241 241 240 237 235 237 240 242 241 242 243 243 244 243 241 239 237 237 238 237 237 238 239 239 239 242 246 252 255 256 262 272 284 293 293 288 287 290 281 255 247 245 240 237 239
60 76 75 78 40 332 205 172 111 107 244 260 353 349 335 316 324 327 320 299 287 291 272 248 261 279 282 282 293 303 308 311 318 322 324 328 317 291 275 271 277 285 291 296 294 287 282 277 268 257 249 244 243 243 244 243 240 239 241 243 243 243 244 244 245 244 242 240 237 237 239 239 239 240 241 243 243 244 246 250 254 257 263 271 283 290 290 286 283 283 269 247 243 241 236 237 240
39 53 69 51 173 222 210 195 174 157 263 273 341 349 329 302 315 314 312 297 285 288 283 281 284 284 286 293 302 305 306 311 316 318 316 319 320 307 290 281 282 287 292 296 298 291 285 285 281 269 259 251 247 246 245 245 244 242 242 244 243 243 244 245 245 244 243 241 237 236 238 239 240 241 244 246 246 245 245 248 254 257 261 270 281 287 287 284 279 275 266 248 241 241 238 240 242
32 82 97 295 198 202 189 186 192 177 266 276 318 330 286 282 311 314 309 288 286 294 295 297 297 299 304 311 317 312 311 313 313 313 309 309 313 311 305 299 295 296 298 298 298 295 291 291 288 278 268 259 254 251 248 247 246 244 243 244 244 243 242 242 242 243 242 241 238 236 238 240 240 242 245 246 246 244 243 247 253 257 262 271 279 285 286 284 277 271 265 249 242 243 241 243 246
75 105 112 241 201 211 203 193 209 212 271 280 303 313 273 276 306 314 302 286 301 304 302 307 311 321 332 332 331 325 319 316 314 311 305 308 310 312 313 308 304 305 306 304 301 298 294 292 290 286 276 266 260 256 253 251 249 248 245 244 245 245 244 242 240 240 241 241 241 239 239 241 241 242 245 246 245 245 244 248 252 257 264 271 276 282 287 286 279 270 263 251 244 245 247 249 251
104 105 135 245 217 233 245 234 248 261 278 286 302 305 285 299 310 305 290 302 310 295 296 304 313 326 335 334 332 329 326 323 320 313 308 311 313 313 313 310 307 305 304 301 297 293 289 290 293 294 286 272 264 259 257 255 253 252 249 247 246 246 246 244 242 241 241 241 242 242 242 242 242 242 244 244 244 246 245 246 250 255 261 266 273 280 287 288 282 272 263 255 247 247 252 254 254
176 146 182 231 189 242 269 269 283 288 282 277 295 306 305 313 317 300 305 324 308 290 298 301 306 320 328 329 331 332 331 330 325 318 313 313 313 310 306 305 304 301 300 296 293 288 284 283 287 292 290 281 270 263 260 259 257 256 254 250 249 248 247 247 246 245 244 243 242 243 243 243 244 244 244 242 241 244 245 245 248 252 256 263 271 278 284 286 283 275 266 257 250 251 256 257 256
177 213 237 243 180 242 281 289 298 298 294 290 301 312 308 311 305 291 295 284 271 291 304 307 308 316 323 328 332 335 334 332 328 322 317 314 312 308 303 302 302 301 300 297 292 287 282 278 277 281 285 284 278 271 264 262 260 258 257 255 252 250 248 248 249 248 247 246 245 245 245 244 245 245 244 242 239 241 244 245 248 251 255 262 268 273 279 281 280 275 267 258 252 253 257 258 258
214 263 258 259 245 249 280 291 294 293 294 293 298 301 299 301 296 293 278 261 276 293 302 307 313 319 325 334 337 340 343 340 334 323 317 315 311 305 299 299 302 303 302 299 292 284 280 274 270 274 279 282 282 278 272 267 264 261 260 259 257 254 251 249 249 251 252 251 248 247 247 247 247 246 246 245 242 240 242 246 249 253 257 261 265 270 276 277 276 272 266 256 250 253 255 257 259
200 270 272 271 266 262 280 292 294 291 289 288 292 293 288 280 287 296 283 278 287 300 305 307 316 327 334 341 345 351 352 347 343 335 322 314 311 308 304 303 303 302 299 296 291 282 276 270 268 270 275 279 282 280 278 275 272 268 265 261 260 259 257 254 251 251 253 255 254 250 249 250 250 249 248 248 247 244 244 245 248 253 258 261 265 270 273 275 274 271 266 256 249 251 253 254 257
185 242 279 294 288 287 292 295 292 291 289 291 293 280 279 281 280 279 282 288 299 305 307 311 320 334 340 341 343 352 353 349 348 340 326 315 313 311 308 307 305 302 296 290 288 281 271 267 267 266 267 270 272 274 279 282 280 278 273 269 266 263 261 260 259 256 254 255 256 255 253 252 253 253 253 251 250 249 249 249 250 254 259 261 266 269 272 274 275 272 267 258 248 248 250 251 254
205 226 278 298 295 297 298 292 288 289 288 290 287 274 283 292 294 268 275 291 319 302 306 320 330 338 344 339 334 337 341 347 340 326 315 309 307 304 301 301 300 300 297 291 285 274 263 260 259 259 260 258 260 262 269 278 283 285 285 283 278 272 267 264 263 261 260 258 257 258 257 256 257 257 257 256 253 251 252 253 255 258 260 263 267 270 272 275 276 274 268 260 250 246 248 250 252
261 273 283 283 290 295 294 286 286 289 287 280 257 264 284 290 101 261 271 297 312 305 323 337 344 348 349 343 326 323 327 331 325 313 300 292 291 293 295 298 298 297 296 293 287 274 258 250 248 253 258 259 260 258 259 268 277 285 291 291 287 285 280 273 266 261 261 261 261 260 260 261 263 262 260 259 257 255 254 255 257 260 263 267 272 275 277 279 280 279 272 264 254 245 246 248 250
309 320 302 291 302 301 289 281 286 290 290 272 232 252 289 288 165 253 269 299 311 321 351 360 6 8 355 334 311 310 312 319 317 307 297 294 295 299 301 303 302 298 295 292 288 279 262 250 244 247 256 262 263 260 257 261 272 282 287 291 293 294 290 283 277 271 266 266 267 266 264 264 266 267 265 262 261 260 260 259 260 263 268 273 277 280 282 282 283 283 278 271 260 248 242 244 246
307 327 314 302 334 316 285 276 278 261 257 267 218 280 306 234 222 257 279 300 315 339 12 20 22 17 333 287 292 299 304 306 300 300 308 314 315 315 313 309 306 303 298 294 289 283 274 263 253 249 252 258 261 259 253 253 264 273 279 287 294 296 294 291 287 284 279 274 271 269 267 266 266 268 268 267 267 267 266 265 266 268 272 275 278 281 283 283 283 283 282 280 272 257 245 242 244
296 336 12 310 353 321 283 251 125 329 283 228 159 279 289 264 250 269 306 320 331 351 17 16 10 24 225 227 282 302 308 300 293 304 319 326 325 321 316 310 306 303 299 295 292 289 285 276 267 262 258 254 254 253 250 251 259 267 275 282 288 292 293 294 293 291 286 280 276 273 271 269 270 270 268 268 270 272 272 272 273 274 276 278 279 281 283 283 282 282 284 285 283 271 255 246 245
299 335 24 338 348 279 294 16 216 324 318 197 156 225 264 276 280 294 320 330 336 342 2 9 357 132 157 158 152 321 345 333 323 324 317 321 324 320 318 313 311 310 308 306 304 302 295 285 274 266 261 252 246 244 242 245 260 270 274 277 283 289 292 294 296 295 291 288 285 284 281 279 278 277 276 275 275 275 275 275 277 279 281 282 282 282 282 283 283 284 286 286 288 284 270 254 249
13 315 306 330 194 265 309 323 224 228 316 158 143 228 269 274 285 299 314 323 328 332 352 19 24 112 123 130 111 74 44 27 3 345 319 322 322 324 331 333 336 338 334 331 326 318 306 294 278 263 253 245 240 238 235 235 251 269 277 282 285 286 289 290 292 293 291 290 288 285 284 284 283 283 283 282 281 280 277 277 280 284 286 285 285 284 283 284 286 287 288 288 290 291 284 267 255
356 204 250 272 223 272 321 330 42 98 51 75 155 241 286 277 282 291 301 317 326 337 4 72 100 104 110 107 98 93 76 65 44 22 16 8 0 357 357 359 3 6 7 6 351 336 325 313 282 257 245 239 237 236 235 233 241 259 273 283 289 289 287 285 284 283 283 284 282 280 280 282 284 284 283 282 281 280 279 280 283 287 287 287 286 285 285 287 288 288 288 290 291 293 292 281 266
307 320 225 246 223 223 295 310 358 50 61 330 289 227 259 269 280 285 298 321 332 360 68 116 108 102 101 97 92 88 81 70 52 38 35 32 31 31 26 24 25 25 30 33 29 29 28 33 44 20 329 293 286 266 250 236 234 248 261 272 284 291 297 298 294 287 283 282 279 277 276 277 279 279 281 281 281 281 281 281 282 284 284 284 285 285 286 286 287 288 289 291 293 294 295 290 279
219 210 213 256 247 229 251 265 303 12 28 299 302 269 260 272 280 287 312 335 341 14 85 113 104 101 96 90 85 78 73 65 55 48 48 52 58 60 60 59 53 44 42 42 38 36 34 38 36 21 8 356 347 333 306 258 228 219 241 269 268 285 305 311 312 306 299 291 284 280 275 273 273 274 275 275 276 280 282 283 283 283 284 284 285 284 285 285 287 290 292 293 294 294 294 292 287
194 198 186 209 245 254 242 245 266 341 354 292 270 265 268 280 281 302 335 343 349 16 81 101 93 95 90 85 82 77 73 69 65 63 65 68 70 70 68 64 58 54 53 51 49 48 49 45 36 35 38 29 15 357 343 303 224 169 154 233 267 352 342 311 310 305 294 294 292 286 277 270 266 267 268 269 270 272 275 277 277 278 279 281 285 286 286 287 287 287 288 290 291 291 292 292 291
147 162 189 210 231 266 264 262 275 146 301 277 265 271 275 280 285 331 352 357 9 22 75 90 85 88 85 84 82 78 78 77 78 80 80 80 78 77 75 73 72 71 71 69 69 68 66 64 64 63 60 54 55 58 53 48 65 117 154 190 124 63 35 318 319 304 297 307 298 286 280 275 273 271 269 269 267 265 265 267 269 273 275 277 280 281 282 283 284 285 286 286 287 287 288 290 292
144 198 255 263 236 259 263 259 288 65 146 264 333 337 283 279 302 355 12 29 25 33 77 83 83 87 84 85 83 83 85 86 90 88 87 87 85 84 83 81 80 76 74 72 71 71 70 70 70 67 66 66 66 65 62 61 61 60 53 41 30 301 266 273 280 312 324 331 311 299 295 288 286 285 279 275 269 265 263 263 265 269 272 273 272 271 270 272 277 282 285 286 287 287 287 287 288
192 177 229 270 246 275 285 281 319 45 126 267 338 343 282 287 27 33 38 62 54 61 84 85 89 89 84 87 87 89 91 90 91 89 87 87 85 84 82 79 76 74 73 72 71 71 70 69 67 66 66 66 67 66 65 64 62 60 57 54 47 30 6 321 294 293 288 285 286 291 299 297 292 286 277 273 272 272 274 273 273 272 271 273 274 273 272 273 276 279 280 281 281 282 284 285 285
182 164 160 252 250 273 280 294 338 17 100 267 248 258 279 298 76 62 62 82 77 77 86 85 87 86 85 90 91 92 92 89 90 88 88 87 85 83 80 77 75 74 72 70 69 68 66 65 64 63 62 61 62 61 59 58 57 59 60 60 59 55 51 30 330 308 293 284 280 278 283 288 289 289 284 279 276 278 280 280 281 281 280 280 280 280 279 279 279 280 280 279 280 281 283 285 284
240 203 186 229 236 210 228 281 345 350 12 4 1 326 294 305 30 93 87 84 75 73 79 76 77 84 90 94 94 93 92 91 90 89 88 86 83 80 76 75 72 70 68 65 64 63 62 62 61 61 61 60 60 58 57 55 56 59 61 64 68 71 75 76 64 47 30 358 328 309 300 292 287 285 282 278 275 275 276 277 278 279 279 279 280 281 281 281 282 283 285 285 285 287 288 286 282
287 232 205 219 222 213 230 314 8 18 351 334 23 6 291 315 327 201 130 70 58 61 63 64 70 83 92 93 93 94 93 93 92 90 90 86 82 78 75 72 69 67 65 62 61 60 59 59 59 58 58 58 58 57 57 55 56 59 60 62 65 67 69 67 58 50 44 39 30 13 350 329 312 301 293 286 279 276 276 275 276 277 277 277 278 278 279 280 282 284 286 286 285 285 286 285 282
299 247 203 209 199 179 186 160 89 118 260 292 43 85 262 317 323 242 140 82 57 54 50 58 73 84 92 94 96 99 98 97 96 94 92 87 82 78 74 70 67 65 64 62 60 59 58 57 55 54 54 55 55 54 53 50 49 50 50 52 54 56 57 55 49 43 40 40 38 34 24 11 358 343 329 317 305 297 290 286 284 282 281 280 279 278 277 276 277 279 281 283 284 282 281 282 282
249 239 146 152 156 162 169 141 139 212 251 317 15 108 259 291 287 266 130 105 60 48 45 56 82 94 99 103 105 106 103 101 101 98 93 87 82 78 74 71 68 67 65 63 60 58 57 54 53 52 52 53 53 51 48 45 44 44 44 44 46 49 51 51 49 44 42 39 38 38 35 31 26 19 11 358 345 334 323 313 305 298 294 290 288 285 282 278 276 275 275 277 280 282 282 283 283
243 201 111 119 137 145 136 111 109 354 28 312 306 103 279 265 268 326 98 124 68 137 187 125 116 116 114 117 115 111 108 106 104 100 94 89 83 79 76 73 70 68 65 62 59 58 56 54 52 50 51 53 53 49 44 43 44 43 43 41 41 46 47 47 46 42 40 37 34 34 32 30 27 22 20 15 9 2 354 344 332 320 312 306 302 298 293 288 283 279 276 275 277 280 281 283 284
204 129 92 69 71 83 76 94 111 48 56 250 245 183 196 270 276 322 87 181 239 194 190 182 149 136 130 129 124 117 113 110 108 103 97 91 85 81 77 74 72 68 64 61 59 58 55 53 48 44 48 51 49 47 41 40 42 40 42 43 44 49 50 48 44 39 38 32 28 27 25 24 22 19 16 13 10 8 5 1 354 343 334 325 318 311 306 302 297 291 286 281 278 277 278 279 281
123 103 70 39 34 56 54 65 97 63 268 246 235 198 184 267 283 244 159 174 248 195 168 179 169 154 147 140 131 124 119 116 112 107 100 93 87 84 79 74 70 67 65 61 58 55 51 50 43 37 43 45 43 43 37 35 37 35 39 41 41 45 45 40 35 35 36 31 28 28 23 19 18 17 15 11 8 7 6 4 2 357 351 343 334 327 320 316 312 307 301 295 289 284 280 277 277
103 90 73 45 340 19 28 356 52 110 252 261 264 204 169 217 261 234 226 311 280 220 188 178 175 169 160 148 138 131 126 123 118 111 103 97 92 87 80 73 69 68 63 56 53 49 44 44 39 32 36 39 37 35 31 30 31 33 36 35 34 35 31 26 25 28 30 28 29 30 25 21 18 15 11 7 5 4 3 0 358 356 353 352 350 346 340 333 327 320 312 305 300 294 289 284 280
84 94 89 80 319 352 353 312 357 230 248 265 276 164 165 234 240 209 276 307 298 282 235 185 172 171 165 153 145 138 133 130 124 116 109 103 98 89 79 72 68 63 54 50 48 42 37 37 32 26 29 35 32 28 26 25 26 30 33 31 30 29 25 23 23 24 24 22 22 20 17 16 14 11 8 6 5 2 359 356 355 353 350 350 350 349 348 345 342 338 330 322 313 304 297 292 288
143 146 128 130 148 174 277 269 271 269 264 269 264 158 206 269 260 203 268 296 308 304 221 181 170 165 162 156 150 145 141 138 131 124 118 112 104 93 81 73 64 57 51 47 41 34 31 26 22 20 26 31 28 25 25 23 26 30 29 26 25 23 20 19 19 19 19 16 14 12 10 9 8 7 6 5 3 0 357 355 353 350 348 345 344 343 343 343 343 342 340 339 333 324 315 307 299
178 159 136 148 155 171 228 225 212 251 283 297 283 232 196 215 221 216 238 357 29 82 154 165 165 162 161 159 155 152 149 145 140 134 130 123 116 104 90 74 60 54 51 42 35 31 22 16 17 16 20 25 22 22 24 23 27 27 23 21 19 16 14 12 11 12 10 8 7 6 4 3 2 2 1 360 358 355 353 352 349 346 343 341 339 337 336 336 337 337 337 337 336 333 331 327 318
217 126 114 165 181 161 191 203 178 185 302 299 242 225 218 184 162 193 117 64 71 114 141 154 162 165 166 165 162 158 155 152 149 146 144 142 139 132 114 82 59 51 47 36 28 24 15 14 19 18 23 30 28 28 28 27 29 23 17 16 13 12 10 7 7 6 4 4 2 0 359 358 357 355 352 351 350 349 347 346 344 342 340 337 335 334 333 332 332 332 333 332 331 329 330 332 328
168 130 178 215 175 126 120 260 42 78 262 275 203 235 288 321 193 356 77 66 78 128 150 160 166 170 173 172 167 163 161 158 157 160 163 170 173 175 174 164 156 27 31 14 8 16 27 33 42 50 55 59 57 54 48 41 35 22 15 13 8 6 3 0 1 359 359 358 355 352 351 348 346 343 342 341 340 340 339 338 337 336 335 334 333 332 331 330 329 328 328 327 327 326 326 328 326
128 183 212 192 119 97 101 251 349 35 249 275 211 210 249 244 238 318 64 144 180 194 183 175 177 180 182 178 170 167 167 166 168 174 184 194 199 206 208 214 230 218 241 303 359 25 39 44 48 54 56 64 66 61 57 51 42 30 22 18 12 8 4 360 358 354 351 348 343 340 338 335 333 332 332 331 329 328 328 328 327 327 327 328 329 329 328 328 327 326 325 324 323 321 319 321 321
131 186 191 115 141 167 95 159 225 245 245 279 288 239 227 210 201 198 202 195 190 199 196 189 195 194 189 182 176 174 174 177 183 188 200 211 215 222 221 222 228 221 235 261 280 53 92 102 98 92 88 86 79 68 62 52 41 31 21 18 14 9 5 360 356 353 347 342 336 333 330 327 325 323 322 321 319 319 318 318 318 319 319 320 321 323 323 323 323 323 322 321 320 319 316 315 315
79 112 59 46 163 171 148 151 165 186 223 272 295 298 265 232 197 184 198 191 176 182 189 198 203 195 189 182 179 181 182 187 198 204 213 222 224 228 226 223 227 227 230 223 192 166 148 141 134 124 107 88 77 64 53 38 27 20 13 12 9 4 1 355 350 346 340 335 332 329 327 325 323 321 319 317 316 314 313 311 311 312 313 313 314 316 318 318 318 319 319 318 317 317 315 314 313
141 167 205 251 150 130 194 203 126 138 178 225 268 278 269 251 197 184 193 180 172 180 182 190 198 193 189 184 180 186 191 199 215 218 223 230 232 231 227 225 229 227 220 197 171 157 144 133 122 107 85 68 54 30 20 11 5 2 357 354 352 350 347 343 340 337 333 331 328 326 324 322 322 321 320 318 317 316 315 313 311 310 310 310 310 311 313 313 314 314 315 315 315 314 312 312 311
162 188 201 189 167 130 189 246 217 132 170 181 206 259 269 259 204 179 179 169 176 184 179 184 196 195 191 187 184 193 208 220 227 227 231 236 238 237 231 231 233 222 208 189 169 158 148 138 128 110 73 35 14 359 355 349 344 342 339 337 335 333 331 328 328 327 326 324 323 322 322 320 320 320 319 318 317 316 315 313 313 312 311 311 311 311 311 311 311 311 311 311 312 312 311 310 309